Terminal Aerodrome Forecast
Issued by NWS Blacksburg, VA

Current Version | Previous Version | Graphics & Text | Print | Product List | Glossary On
Versions: 1 2 3 4 5 6 7 8 9 10 11 12 13 14 15 16 17 18 19 20 21 22 23 24 25 26 27 28 29
000
FTUS41 KRNK 041723
TAFBLF
TAF
KBLF 041723Z 0418/0518 29008KT P6SM OVC018
     FM042200 31008G16KT P6SM OVC020
     FM050800 31012G22KT P6SM -SHSN BKN025
     FM051400 30013G25KT P6SM SCT025 BKN035=

USA.gov is the U.S. government's official web portal to all federal, state and local government web resources and services.